Probability
0 0 0 0 0 0 0 0 0 0 0 0 0 0 0 0 0 0 0 0 0 0 0 0 0 0 0 0 0 0 0 0 0 0 0 0 0 0
0 0 0 0 0 0 0 0 0 0 0 0 0 0 0 0 0 0 0 0 0 0 0 0 0 0 0 0 0 0 0 0 0 0 0 0 0 1
0 0 0 0 0 0 0 0 0 0 0 0 0 0 0 0 0 0 0 0 0 0 0 0 0 0 0 0 0 0 0 0 0 0 0 0 0 1
0 0 0 0 0 0 0 0 0 0 0 0 0 0 0 0 0 0 0 0 0 0 0 0 0 0 0 0 0 0 0 0 0 0 0 0 0 1
0 0 0 0 0 0 0 0 0 0 0 0 0 0 0 0 0 0 0 0 0 0 0 0 0 0 0 0 0 0 0 0 0 0 0 0 0 0
0 0 0 0 0 0 0 0 0 0 0 0 0 0 0 0 0 0 0 0 0 0 0 0 0 0 0 0 0 0 0 0 0 0 0 0 0 0
0 0 0 0 0 0 0 0 0 0 0 0 0 0 0 0 0 0 0 0 0 0 0 0 0 0 0 0 0 0 0 0 0 0 0 0 0 0
0 0 0 0 0 0 0 0 0 0 0 0 0 0 0 0 0 0 0 0 0 0 0 0 0 0 0 0 0 0 0 0 0 0 0 0 0 0
0 0 0 0 0 0 0 0 0 0 0 0 0 0 0 0 0 0 0 0 0 0 0 0 0 0 0 0 0 0 0 0 0 0 0 0 0 0
0 0 0 0 0 0 0 0 0 0 0 0 0 0 0 0 0 0 0 0 0 0 0 0 0 0 0 0 0 0 0 0 0 0 0 0 0 0
0 0 0 0 0 0 0 0 0 0 0 0 0 0 0 0 0 0 0 0 0 0 0 0 0 0 0 0 0 0 0 0 0 0 0 0 0 0
0 0 0 0 0 0 0 0 0 0 0 0 0 0 0 0 0 0 0 0 0 0 0 0 0 0 0 0 0 0 0 0 0 0 0 0 0 0
0 0 0 0 0 0 0 0 0 0 0 0 0 0 0 0 0 0 0 0 0 0 0 0 0 0 0 0 0 0 0 0 0 0 0 0 0 0
0 0 0 0 0 0 0 0 0 0 0 0 0 0 0 0 0 0 0 0 0 0 0 0 0 0 0 0 0 0 0 0 0 0 0 0 0 0
0 0 0 0 0 0 0 0 0 0 0 0 0 0 0 0 0 0 0 0 0 0 0 0 0 0 0 0 0 0 0 0 0 0 0 0 0 0
0 0 0 0 0 0 0 0 0 0 0 0 0 0 0 0 0 0 0 0 0 0 0 0 0 0 0 0 0 0 0 0 0 0 0 0 0 0
0 0 0 0 0 0 0 0 0 0 0 0 0 0 0 0 0 0 0 0 0 0 0 0 0 0 0 0 0 0 0 0 0 0 0 0 0 0
0 0 0 0 0 0 0 0 0 0 0 0 0 0 0 0 0 0 0 0 0 0 0 0 0 0 0 0 0 0 0 0 0 0 0 0 0 0
0 0 0 0 0 0 0 0 0 0 0 0 0 0 0 0 0 0 0 0 0 0 0 0 0 0 0 0 0 0 0 0 0 0 0 0 0 0
0 0 0 0 0 0 0 0 0 0 0 0 0 0 0 0 0 0 0 0 0 0 0 0 0 0 0 0 0 0 0 0 0 0 0 0 0 0
0 0 0 0 0 0 0 0 0 0 0 0 0 0 0 0 0 0 0 0 0 0 0 0 0 0 0 0 0 0 0 0 0 0 0 0 0 0
0 0 0 0 0 0 0 0 0 0 0 0 0 0 0 0 0 0 0 0 0 0 0 0 0 0 0 0 0 0 0 0 0 0 0 0 0 0
0 0 0 0 0 0 0 0 0 0 0 0 0 0 0 0 0 0 0 0 0 0 0 0 0 0 0 0 0 0 0 0 0 0 0 0 0 0
Wind_Speed
5 5 5 4 4 4 4 5 5 6 6 4 3 3 4 4 5 6 7 7 10 11 11 12 12 12 13 13 14 15 15 14 13 13 13 14 14 14
4 5 5 4 4 4 5 5 6 6 7 4 4 5 5 5 6 7 7 8 10 10 11 12 12 12 13 13 14 15 14 14 13 13 13 13 13 14
5 5 6 5 4 4 4 5 5 6 8 6 5 5 7 7 6 6 6 7 6 9 11 12 12 12 13 13 14 14 15 14 13 13 13 13 13 13
6 6 6 5 6 5 5 6 6 6 7 8 6 5 7 7 7 7 6 6 7 9 11 12 13 12 13 13 13 14 13 12 12 13 13 13 13 12
6 7 6 6 6 5 6 6 5 5 6 7 7 5 5 5 6 6 7 6 7 7 9 11 12 13 13 13 13 13 12 12 12 12 12 12 12 12
6 7 7 7 8 7 6 7 6 6 6 6 7 6 5 5 4 5 6 6 6 6 7 8 10 12 13 12 12 11 11 11 12 12 12 12 11 11
6 7 7 8 9 7 6 6 6 6 6 6 7 6 6 4 4 4 6 6 6 5 5 5 6 6 7 9 10 11 11 11 12 12 11 11 11 11
7 7 7 7 8 10 11 10 9 8 8 7 7 7 7 6 5 5 5 5 6 3 5 6 5 6 6 6 8 11 12 12 12 12 11 11 11 11
7 6 5 5 6 7 8 10 10 11 11 8 9 9 8 6 5 6 6 6 7 4 4 7 5 7 6 6 10 11 11 12 11 12 12 12 11 11
6 6 6 6 5 6 6 7 7 8 8 8 9 8 7 5 5 6 6 7 7 5 4 6 5 6 5 6 9 10 11 11 11 12 12 11 11 11
5 5 6 6 7 7 6 7 8 7 7 9 10 9 9 8 6 4 4 5 6 5 3 4 4 5 5 6 6 8 11 12 12 12 11 11 11 10
5 5 6 8 8 8 7 7 8 7 6 6 7 8 7 7 7 6 5 5 5 5 3 3 4 3 5 3 4 4 6 9 11 11 11 11 10 6
4 4 4 8 9 9 8 7 8 7 6 6 5 5 4 4 4 5 5 5 6 6 2 3 4 3 4 5 4 4 4 5 5 7 9 9 8 6
5 4 4 6 7 8 7 7 8 6 4 4 4 4 4 4 4 4 5 6 6 7 5 4 4 4 5 6 5 4 4 4 4 4 4 5 6 7
5 6 6 7 7 6 6 7 5 4 4 5 5 5 4 4 3 3 4 4 6 6 5 5 5 5 5 6 5 5 5 4 3 3 3 3 3 3
5 5 6 7 5 5 4 4 3 3 4 4 4 4 3 3 3 3 3 3 4 4 4 4 5 6 6 7 6 6 5 4 3 3 4 4 4 3
4 3 3 3 3 3 3 3 3 3 3 4 4 4 3 3 3 3 3 3 4 4 4 2 3 4 6 6 6 6 5 4 4 3 3 4 4 3
4 4 4 4 4 4 4 3 3 3 3 3 3 3 3 3 3 3 3 4 4 4 4 3 2 3 3 4 7 7 5 4 4 4 3 4 5 4
4 4 4 4 4 4 4 4 4 4 3 3 4 3 3 3 3 3 3 3 4 4 3 3 2 3 4 5 3 5 5 4 4 4 4 4 5 5
4 4 5 4 4 4 4 4 4 3 3 3 3 3 3 3 3 3 3 3 4 4 3 3 3 3 4 4 4 4 6 5 4 4 4 4 4 5
4 4 5 4 4 4 4 4 4 4 4 3 3 3 3 3 4 4 4 4 4 3 4 4 3 4 4 3 4 4 3 5 6 5 4 4 3 3
5 5 5 5 4 4 4 4 4 4 4 4 3 3 3 3 4 4 4 3 3 3 4 3 3 2 2 3 5 5 5 4 5 7 8 7 4 3
5 5 5 5 4 4 4 4 5 4 4 4 3 3 3 3 3 3 3 3 3 3 3 3 3 2 3 3 4 5 6 6 4 4 4 6 8 9
Wind_Direction
238 239 243 245 243 246 249 252 262 277 279 265 260 256 271 279 284 283 284 290 290 290 293 294 293 291 292 293 293 293 292 291 287 284 283 284 284 284
238 237 240 241 241 241 242 246 250 261 271 276 275 283 281 281 282 281 282 287 279 282 287 288 289 289 289 289 290 290 291 288 287 285 283 284 283 284
241 241 243 242 242 241 242 244 245 248 262 277 281 284 280 281 282 283 284 280 277 275 283 285 286 287 289 288 287 287 288 285 286 287 286 284 282 283
242 242 245 244 244 244 243 244 247 248 257 272 279 279 274 277 282 284 284 281 281 280 280 281 282 283 285 286 285 284 284 283 285 286 286 285 282 281
243 243 245 244 244 244 246 248 250 253 256 265 274 275 275 277 284 282 282 280 281 282 280 277 278 282 283 283 283 284 283 281 281 283 285 285 284 282
249 248 247 245 247 247 248 249 251 253 255 260 267 272 273 276 276 281 285 282 283 283 277 279 280 279 276 278 280 280 281 280 278 279 282 284 283 283
255 254 251 253 255 254 254 255 253 252 256 259 264 269 268 270 267 274 279 290 284 273 281 279 279 274 270 270 272 275 277 278 278 277 277 280 279 279
257 258 256 252 255 255 257 259 255 253 254 256 261 263 268 268 272 270 275 283 285 273 286 283 276 271 270 270 272 273 272 274 274 273 273 274 275 274
257 261 262 261 260 263 261 258 255 253 253 255 261 264 270 267 268 267 265 270 275 292 289 281 274 272 274 272 276 273 273 273 272 273 273 273 271 269
259 261 265 269 266 272 271 266 264 260 258 255 261 267 270 268 258 265 273 278 283 275 264 274 277 275 281 274 270 269 273 275 274 273 273 274 271 267
265 263 264 269 275 269 265 268 273 273 269 263 265 269 270 265 259 258 258 265 277 272 241 264 279 287 280 270 272 276 276 275 274 273 274 278 272 267
266 266 264 271 278 265 259 262 268 274 278 277 267 264 260 256 244 240 245 251 269 272 227 254 273 292 287 269 280 284 280 277 273 273 275 277 269 260
268 269 271 277 275 270 262 261 270 280 273 268 266 262 257 251 245 243 242 243 253 259 250 252 270 271 271 288 290 287 286 289 287 276 271 274 272 257
274 278 283 286 279 276 272 282 284 280 272 264 259 258 255 255 256 253 250 248 254 263 264 257 259 264 274 280 282 288 291 291 290 286 278 278 277 271
281 289 292 291 285 280 285 293 289 278 272 268 265 266 266 264 262 263 261 256 259 261 260 254 257 263 264 269 280 285 293 291 284 288 294 293 286 275
280 287 286 286 283 288 294 284 276 278 277 275 279 282 282 266 254 256 262 265 270 269 256 252 254 257 262 269 271 275 277 282 292 296 300 296 291 275
287 282 280 282 278 278 280 279 278 277 274 275 277 279 277 275 272 266 260 260 261 276 281 276 266 260 261 267 266 265 271 276 279 292 293 292 290 281
278 269 265 264 267 272 274 276 271 270 274 275 272 272 273 274 275 274 268 260 264 271 277 281 278 286 279 264 242 258 266 271 280 279 273 278 285 286
261 265 263 261 261 261 262 264 267 269 267 264 266 268 270 270 268 269 270 270 271 274 279 285 273 264 275 288 277 231 257 269 272 274 271 269 278 291
262 266 266 263 260 258 259 261 267 269 261 261 263 265 265 264 265 268 268 268 273 279 280 274 267 264 261 277 289 291 266 266 268 271 278 281 279 288
266 269 268 263 258 256 257 259 261 262 262 262 261 262 261 261 264 267 267 267 264 268 275 281 287 285 275 270 274 279 281 265 268 273 278 281 287 280
266 267 266 263 263 261 258 256 257 258 259 255 258 258 256 253 256 261 265 266 265 268 278 289 298 283 257 251 268 286 297 305 290 278 273 268 272 264
266 267 265 263 260 260 260 256 253 253 251 250 250 251 254 258 259 258 259 262 270 276 284 290 293 282 267 263 272 280 288 298 305 304 289 286 278 275